Hourly Data Report for June 11, 2021

FISHER BRANCH (AUT)
MANITOBA
Current Station Operator: ECCC - MSC

51°05'00.100" N
97°33'16.200" W
253.00 m
50309J6
71442
WSZ

Download Data

Hourly Data (June 2021)
Hourly Data Report for June 11, 2021
TIME
LST
Temp Definition
°C
Dew Point Definition
°C
Rel Hum Definition
%
Precip. Amount Definition
mm

Wind Dir Definition
10's deg

Wind Spd Definition
km/h
Visibility Definition
km
Stn Press Definition
kPa
Hmdx Definition


Wind Chill Definition


Weather Definition


00:00 15.9 12.8 82 0.0 9 28   98.00     LegendNANA
01:00 15.5 12.8 84 0.0 10 29   97.94     LegendNANA
02:00 15.5 12.9 84 0.0 10 24   97.83     LegendNANA
03:00 15.5 13.1 86 0.0 11 24   97.89     LegendNANA
04:00 15.3 13.0 86 0.0 9 26   97.65     LegendNANA
05:00 15.3 12.9 86 0.0 9 31   97.53     LegendNANA
06:00 15.1 12.8 86 0.0 8 31   97.35     LegendNANA
07:00 14.3 13.5 94 11.8 7 17   97.58     LegendNANA
08:00 14.7 13.7 94 2.5 7 24   97.40     LegendNANA
09:00 15.6 14.2 91 0.0 8 36   97.19     LegendNANA
10:00 16.2 14.5 90 0.0 10 36   97.10     LegendNANA
11:00 17.2 15.3 89 0.0 11 41   97.05     LegendNANA
12:00 18.4 16.1 87 0.0 12 35   97.02     LegendNANA
13:00 18.3 16.4 89 0.0 11 25   97.00     LegendNANA
14:00 18.8 17.0 90 2.0 11 34   96.89     LegendNANA
15:00 19.2 17.9 92 1.1 12 34   96.83     LegendNANA
16:00 22.4 15.3 64 0.0 17 28   96.83 27   LegendNANA
17:00 20.7 13.6 64 0.0 15 33   96.79     LegendNANA
18:00 19.0 12.1 64 0.0 15 30   96.75     LegendNANA
19:00 15.4 12.9 85 0.0 15 32   96.70     LegendNANA
20:00 15.5 14.3 93 4.1 17 20   96.54     LegendNANA
21:00 14.7 13.7 93 0.0 23 14   96.81     LegendNANA
22:00 14.7 13.6 93 0.0 21 10   96.91     LegendNANA
23:00 15.2 14.0 92 0.0 22 12   96.94     LegendNANA

Notes on Data Quality.

Legend

  • E = Estimated
  • M = Missing
  • NA = Not Available*
  • [empty] = Indicates an unobserved value
Date modified: